Miscellaneous Local Product
Issued by NWS North Platte, NE

Home | Current Version | Previous Version | Text Only | Print | Product List | Glossary On
Versions: 1 2 3 4 5 6 7 8 9 10 11 12 13 14 15 16 17 18 19 20 21 22 23 24 25 26 27 28 29 30 31 32 33 34 35 36 37 38 39 40 41 42 43 44 45 46 47 48 49 50
935
AXUS43 KLBF 140710
MISLBF


WESTERN AND NORTH CENTRAL NEBRASKA HOURLY WEATHER ROUNDUP
NATIONAL WEATHER SERVICE NORTH PLATTE NE
100 AM CST THU DEC 14 2017

NOTE: "FAIR" INDICATES FEW OR NO CLOUDS BELOW 12,000 FEET WITH NO
SIGNIFICANT WEATHER AND/OR OBSTRUCTIONS TO VISIBILITY.

NOTE: STATIONS NOT REPORTING VARIABLES SUCH AS SKY/WEATHER OR
PRESSURE ARE PROVIDED BY RAWS AND APRS NETWORKS AND ARE NOT UNDER
NATIONAL WEATHER SERVICE QUALITY CONTROL.

...OBSERVATIONS IN AND NEAR THE EASTERN PANHANDLE OF NEBRASKA...

CITY           SKY/WX    TMP DP  RH WIND       PRES   REMARKS
PINE RIDGE     CLOUDY    36  25  64 W7        30.10S WCI  30
GORDON         CLOUDY    37  26  64 W9        30.08S WCI  30
CHADRON        CLOUDY    36  23  59 W15       30.11F WCI  27
ALLIANCE       CLOUDY    35  24  64 NW10      30.11F WCI  27
SIDNEY         CLOUDY    34  26  72 N23G31    30.12S WCI  22
CRESCENT LAKE    N/A     35  24  63 NW12        N/A  WCI  27
$$

...OBSERVATIONS IN NORTHERN NEBRASKA AND FAR SOUTHERN SOUTH DAKOTA...

CITY           SKY/WX    TMP DP  RH WIND       PRES   REMARKS
WINNER         FAIR      28  23  81 SW7       30.04F WCI  21
VALENTINE      CLOUDY    35  22  58 W7        30.05F WCI  29
THEDFORD       CLOUDY    37  23  56 NW8       30.07S WCI  31
AINSWORTH      PTCLDY    29  26  86 W3        30.04F
O`NEILL        CLOUDY    33  27  77 NW9       30.03F WCI  26
ORD            CLOUDY    33  25  72 NW9       30.05R WCI  25
BROKEN BOW     CLOUDY    31  23  72 N7        30.05S WCI  24
VALENTINE NWR    N/A     34  20  57 NW9G16      N/A  WCI  27
HALSEY           N/A     35  20  54 NW7         N/A  WCI  29
BUTTE            N/A     33  26  76 W12         N/A  WCI  24
CHAMBERS         N/A     33  24  70 N3          N/A
EWING            N/A     34  27  75 NW6         N/A  WCI  29
$$

...OBSERVATIONS IN SOUTHWEST NEBRASKA AND FAR NORTHEAST COLORADO...

CITY           SKY/WX    TMP DP  RH WIND       PRES   REMARKS
WRAY           CLOUDY    37  19  48 N8        30.14S WCI  31
HOLYOKE        FAIR      37  21  52 NW6       30.13S WCI  33
IMPERIAL       CLOUDY    37  21  52 W7        30.12R WCI  32
OGALLALA       CLOUDY    36  23  59 W7        30.11R WCI  31
NORTH PLATTE   CLOUDY    34  23  64 NW5       30.08F WCI  30
MCCOOK         CLOUDY    37  22  54 NW9       30.09F WCI  30
LEXINGTON      CLOUDY    37  23  55 NW8       30.07R WCI  31
STAPLETON        N/A     35  21  57 CALM        N/A
GOTHENBURG       N/A     37  20  50 NW6         N/A  WCI  32
CALLAWAY         N/A     36  22  57 NW10        N/A  WCI  28
$$

...OBSERVATIONS IN CENTRAL LINCOLN COUNTY AREA...

CITY           SKY/WX    TMP DP  RH WIND       PRES   REMARKS
N.P. AIRPORT   CLOUDY    34  23  64 NW5       30.08F WCI  30
N.P. DOWNTOWN    N/A     37  23  56 CALM        N/A
N.P. SOUTHEAST   N/A     37  22  54 NW3         N/A
N.P. HILLCREST   N/A     36  22  57 NW8         N/A  WCI  30
$$

...SOME OBSERVATIONS FROM AROUND THE REGION...

CITY           SKY/WX    TMP DP  RH WIND       PRES   REMARKS
DENVER         FLURRIES  33  24  69 N18       30.17R WCI  22
GRAND JUNCTION CLOUDY    39  33  79 N8        30.09R WCI  33
LARAMIE        LGT SNOW  23  22  96 N13       30.14R FOG     WCI  11
CHEYENNE       MIX PCPN  27  25  92 N16G22    30.14S WCI  15
CASPER         CLOUDY    29  27  92 NW3       30.22S
BISMARCK       CLOUDY    28  24  85 SW5       29.98F WCI  23
RAPID CITY     CLOUDY    34  28  79 N16       30.08F WCI  24
PIERRE         CLOUDY    30  26  85 W6        30.02F WCI  24
SIOUX FALLS    CLOUDY    30  27  88 CALM      29.98F
OMAHA          CLOUDY    37  25  61 N14       30.00R WCI  28
GRAND ISLAND   CLOUDY    32  26  78 NW8       30.06R WCI  25
SCOTTSBLUFF    CLOUDY    33  30  88 W12       30.15F WCI  24
KANSAS CITY    CLOUDY    38  28  67 N8        29.95F WCI  32
HILL CITY      PTCLDY    39  23  52 NW10      30.09  WCI  32
WICHITA        PTCLDY    38  24  57 N9        30.00R WCI  31
DODGE CITY     CLOUDY    39  19  44 NW8       30.06R WCI  33
OKLAHOMA CITY  PTCLDY    38  24  57 N9        29.96S WCI  31
DALLAS         PTCLDY    45  30  55 SW7       29.88S
AMARILLO       CLOUDY    32  15  49 N8        30.00F WCI  25
$$




USA.gov is the U.S. government's official web portal to all federal, state and local government web resources and services.